Location: Zapote
(9.9191°N, 84.0597°W)
Time: 04:42:09
(UTC-06:00)

Hubble Space Telescope - Pass Details

Date: 29 January 2021
Orbit: 536 x 539 km, 28.5° (Epoch: 28 February)

Event Time Altitude Azimuth Distance (km) Brightness Sun altitude
Rises 20:09:31 0° 281° (W) 2,671 5.1 -36.2°
Reaches altitude 10° 20:12:03 10° 268° (W) 1,781 4.1 -36.8°
Enters shadow 20:12:10 11° 267° (W) 1,743 4.1 -36.8°
